• In Kazakhstan
  • List of Countries
  • For 7 days
  • Water Temperature
  • Satellite Maps
  • Weather Map
  • News
  • Weather Widgets
  • user-avatar
    Login

    Hourly Weather Top

    Today, 24 November, Friday

    Time Temperature Precipitation Wind Pressure Humidity
    00:00 +19°C° 0 mm 1 mps 684 mmHg 89%
    01:00 +18°C° 0 mm 2 mps 684 mmHg 88%
    02:00 +18°C° 0 mm 2 mps 684 mmHg 88%
    03:00 +18°C° 0 mm 2 mps 684 mmHg 89%
    04:00 +18°C° 0 mm 2 mps 684 mmHg 89%
    05:00 +18°C° 0 mm 2 mps 684 mmHg 88%
    06:00 +19°C° 0 mm 2 mps 684 mmHg 87%
    07:00 +19°C° 0 mm 2 mps 685 mmHg 85%
    08:00 +21°C° 0 mm 2 mps 685 mmHg 78%
    09:00 +23°C° 0 mm 2 mps 686 mmHg 71%
    10:00 +25°C° 0 mm 2 mps 686 mmHg 65%
    11:00 +25°C° 0 mm 3 mps 686 mmHg 64%
    12:00 +26°C° 0 mm 3 mps 686 mmHg 63%
    13:00 +26°C° 0 mm 3 mps 686 mmHg 62%
    14:00 +25°C° 0 mm 3 mps 685 mmHg 65%
    15:00 +24°C° 0 mm 2 mps 685 mmHg 68%
    16:00 +23°C° 0 mm 2 mps 684 mmHg 72%
    17:00 +21°C° 0 mm 2 mps 684 mmHg 76%
    18:00 +20°C° 0 mm 2 mps 684 mmHg 80%
    19:00 +19°C° 0 mm 2 mps 684 mmHg 84%
    20:00 +19°C° 0 mm 2 mps 685 mmHg 85%
    21:00 +19°C° 0 mm 2 mps 685 mmHg 86%
    22:00 +18°C° 0 mm 2 mps 685 mmHg 87%
    23:00 +18°C° 0 mm 2 mps 685 mmHg 88%

    Tomorrow, 25 November, Saturday

    Time Temperature Precipitation Wind Pressure Humidity
    00:00 +19°C° 0 mm 1 mps 685 mmHg 88%
    01:00 +19°C° 0 mm 1 mps 685 mmHg 88%
    02:00 +19°C° 0 mm 1 mps 685 mmHg 88%
    03:00 +19°C° 0 mm 1 mps 684 mmHg 88%
    04:00 +19°C° 0 mm 1 mps 684 mmHg 88%
    05:00 +18°C° 0 mm 2 mps 684 mmHg 87%
    06:00 +19°C° 0 mm 2 mps 685 mmHg 86%
    07:00 +19°C° 0 mm 2 mps 685 mmHg 85%
    08:00 +21°C° 0 mm 2 mps 686 mmHg 79%
    09:00 +23°C° 0 mm 2 mps 686 mmHg 73%
    10:00 +25°C° 0 mm 2 mps 687 mmHg 66%
    11:00 +26°C° 0 mm 2 mps 686 mmHg 65%
    12:00 +26°C° 0 mm 2 mps 686 mmHg 63%
    13:00 +27°C° 0 mm 2 mps 686 mmHg 61%
    14:00 +26°C° 0 mm 2 mps 685 mmHg 64%
    15:00 +25°C° 0 mm 2 mps 685 mmHg 68%
    16:00 +24°C° 0 mm 2 mps 684 mmHg 71%
    17:00 +23°C° 0 mm 2 mps 684 mmHg 75%
    18:00 +22°C° 0 mm 1 mps 685 mmHg 80%
    19:00 +21°C° 0 mm 1 mps 685 mmHg 84%
    20:00 +21°C° 0 mm 1 mps 685 mmHg 85%
    21:00 +20°C° 0 mm 1 mps 685 mmHg 86%
    22:00 +20°C° 0 mm 1 mps 686 mmHg 87%
    23:00 +20°C° 0 mm 1 mps 685 mmHg 87%

    Day after tomorrow, 26 November, Sunday

    Time Temperature Precipitation Wind Pressure Humidity
    00:00 +20°C° 0 mm 1 mps 685 mmHg 87%
    01:00 +20°C° 0 mm 1 mps 685 mmHg 86%
    02:00 +20°C° 0.1 mm 1 mps 685 mmHg 86%
    03:00 +20°C° 0.1 mm 1 mps 684 mmHg 86%
    04:00 +20°C° 0.1 mm 1 mps 684 mmHg 86%
    05:00 +21°C° 0.1 mm 1 mps 684 mmHg 86%
    06:00 +21°C° 0.1 mm 1 mps 685 mmHg 85%
    07:00 +21°C° 0.1 mm 1 mps 685 mmHg 85%
    08:00 +22°C° 0.1 mm 1 mps 686 mmHg 80%
    09:00 +24°C° 0.1 mm 2 mps 686 mmHg 76%
    10:00 +25°C° 0.1 mm 2 mps 687 mmHg 71%
    11:00 +25°C° 0.1 mm 2 mps 686 mmHg 70%
    12:00 +26°C° 0.1 mm 2 mps 685 mmHg 69%
    13:00 +26°C° 0.1 mm 2 mps 685 mmHg 68%
    14:00 +25°C° 0.1 mm 2 mps 684 mmHg 70%
    15:00 +25°C° 0.1 mm 2 mps 684 mmHg 73%
    16:00 +24°C° 0.1 mm 1 mps 683 mmHg 75%
    17:00 +23°C° 0.6 mm 1 mps 683 mmHg 79%
    18:00 +22°C° 0.6 mm 1 mps 684 mmHg 83%
    19:00 +21°C° 0.6 mm 1 mps 684 mmHg 86%
    20:00 +21°C° 0.3 mm 1 mps 684 mmHg 89%
    21:00 +21°C° 0.3 mm 1 mps 685 mmHg 91%
    22:00 +20°C° 0.3 mm 1 mps 685 mmHg 93%
    23:00 +20°C° 0.2 mm 1 mps 684 mmHg 93%

    27 November, Monday

    Time Temperature Precipitation Wind Pressure Humidity
    00:00 +20°C° 0.2 mm 1 mps 684 mmHg 94%
    01:00 +20°C° 0.2 mm 1 mps 684 mmHg 94%
    02:00 +20°C° 0.4 mm 1 mps 683 mmHg 94%
    03:00 +20°C° 0.4 mm 1 mps 683 mmHg 94%
    04:00 +20°C° 0.4 mm 1 mps 683 mmHg 94%
    05:00 +20°C° 0.2 mm 1 mps 683 mmHg 94%
    06:00 +20°C° 0.2 mm 1 mps 683 mmHg 93%
    07:00 +21°C° 0.2 mm 1 mps 684 mmHg 93%
    08:00 +22°C° 0.2 mm 1 mps 684 mmHg 87%
    09:00 +23°C° 0.2 mm 1 mps 685 mmHg 81%
    10:00 +25°C° 0.2 mm 2 mps 685 mmHg 75%
    11:00 +25°C° 0.1 mm 2 mps 685 mmHg 73%
    12:00 +26°C° 0.1 mm 2 mps 684 mmHg 71%
    13:00 +26°C° 0.1 mm 2 mps 683 mmHg 68%
    14:00 +26°C° 0.1 mm 1 mps 683 mmHg 71%
    15:00 +25°C° 0.1 mm 1 mps 682 mmHg 74%
    16:00 +24°C° 0.1 mm 1 mps 682 mmHg 77%
    17:00 +23°C° 0 mm 1 mps 682 mmHg 80%
    18:00 +22°C° 0 mm 1 mps 683 mmHg 84%
    19:00 +21°C° 0 mm 1 mps 683 mmHg 88%
    20:00 +21°C° 0 mm 1 mps 683 mmHg 89%
    21:00 +21°C° 0 mm 1 mps 683 mmHg 90%
    22:00 +21°C° 0 mm 1 mps 684 mmHg 91%
    23:00 +20°C° 0 mm 1 mps 683 mmHg 91%

    28 November, Tuesday

    Time Temperature Precipitation Wind Pressure Humidity
    00:00 +20°C° 0 mm 1 mps 683 mmHg 91%
    01:00 +20°C° 0 mm 1 mps 682 mmHg 91%
    02:00 +20°C° 0 mm 1 mps 682 mmHg 92%
    03:00 +20°C° 0 mm 1 mps 682 mmHg 92%
    04:00 +20°C° 0 mm 1 mps 682 mmHg 93%
    05:00 +20°C° 0 mm 1 mps 682 mmHg 92%
    06:00 +20°C° 0 mm 1 mps 683 mmHg 90%
    07:00 +21°C° 0 mm 1 mps 683 mmHg 89%
    08:00 +23°C° 0 mm 1 mps 684 mmHg 82%
    09:00 +24°C° 0 mm 1 mps 684 mmHg 74%
    10:00 +26°C° 0 mm 2 mps 685 mmHg 67%
    11:00 +27°C° 0 mm 2 mps 684 mmHg 65%
    12:00 +28°C° 0 mm 2 mps 684 mmHg 62%
    13:00 +28°C° 0 mm 2 mps 683 mmHg 60%
    14:00 +27°C° 0.3 mm 2 mps 683 mmHg 64%
    15:00 +27°C° 0.3 mm 1 mps 683 mmHg 69%
    16:00 +26°C° 0.3 mm 1 mps 682 mmHg 74%
    17:00 +24°C° 0.1 mm 1 mps 683 mmHg 79%
    18:00 +23°C° 0.1 mm 1 mps 683 mmHg 84%
    19:00 +22°C° 0.1 mm 1 mps 683 mmHg 88%
    20:00 +21°C° 0 mm 1 mps 683 mmHg 90%
    21:00 +21°C° 0 mm 1 mps 683 mmHg 91%
    22:00 +21°C° 0 mm 1 mps 684 mmHg 92%
    23:00 +21°C° 0 mm 1 mps 683 mmHg 92%

    29 November, Wednesday

    Time Temperature Precipitation Wind Pressure Humidity
    00:00 +21°C° 0 mm 1 mps 683 mmHg 92%
    01:00 +20°C° 0 mm 1 mps 682 mmHg 92%
    02:00 +20°C° 0 mm 1 mps 682 mmHg 93%
    03:00 +20°C° 0 mm 1 mps 682 mmHg 93%
    04:00 +20°C° 0 mm 1 mps 682 mmHg 93%
    05:00 +20°C° 0 mm 1 mps 682 mmHg 92%
    06:00 +21°C° 0 mm 1 mps 683 mmHg 91%
    07:00 +21°C° 0 mm 1 mps 683 mmHg 90%
    08:00 +23°C° 0 mm 1 mps 684 mmHg 82%
    09:00 +25°C° 0 mm 1 mps 684 mmHg 73%
    10:00 +27°C° 0 mm 1 mps 685 mmHg 64%
    11:00 +28°C° 0 mm 1 mps 684 mmHg 61%
    12:00 +28°C° 0 mm 1 mps 684 mmHg 57%
    13:00 +29°C° 0 mm 1 mps 683 mmHg 54%
    14:00 +29°C° 0 mm 1 mps 683 mmHg 59%
    15:00 +28°C° 0 mm 1 mps 682 mmHg 63%
    16:00 +27°C° 0 mm 1 mps 682 mmHg 68%
    17:00 +25°C° 0 mm 1 mps 682 mmHg 75%
    18:00 +24°C° 0 mm 1 mps 683 mmHg 81%
    19:00 +22°C° 0 mm 1 mps 683 mmHg 88%
    20:00 +21°C° 0 mm 1 mps 683 mmHg 89%
    21:00 +21°C° 0 mm 1 mps 683 mmHg 90%
    22:00 +21°C° 0 mm 1 mps 683 mmHg 92%
    23:00 +20°C° 0 mm 1 mps 683 mmHg 92%
    Show more